Flag for Slovakia Weather past 2 weeks in Prievidza, Slovakia

Now
46 °F

Cool.


Feels Like: N/A
Forecast: 51 / 77 °F
Wind: N/A

Location: Prievidza

Current Time: Aug 29, 2014 at 3:44:12 AM

Latest Report: Aug 29, 2014 at 3:00 AM


Visibility: 22 mi

Pressure: 30.17 "Hg

Humidity: 94%

Dew point: 45 °F

Location of PrievidzaLocation

Historic Weather in Prievidza — Graph

°F

Prievidza temperature yesterday

Maximum temperature yesterday: 72 °F (at 4:00 PM)
Minimum temperature yesterday: 42 °F (at 6:00 AM)
Average temperature yesterday: 56 °F

Past Weeks' High & Low Weather Summary

 TemperatureHumidityPressure
High76 °F (Aug 18, 2:00 PM)97% (Aug 15, 2:00 AM)30.18 "Hg (Aug 15, 2:00 AM)
Low42 °F (Aug 28, 6:00 AM)33% (Aug 28, 4:00 PM)29.73 "Hg (Aug 27, 7:00 AM)
Average60 °F76%29.96 "Hg
* Reported Aug 14 2:00 AM — Aug 29 2:00 AM, Prievidza, Weather by CustomWeather, © 2014

Note: Actual official high and low records may vary slightly from our data, if they occured in-between our weather recording intervals... More about our weather records

Advertising

Prievidza weather history for previous 24 hours

 ConditionsComfort  
Time TempWeatherWind HumidityBarometerVisibility
2:00 AM
Aug 29
47 °FCool.No wind92%30.18 "Hg19 mi
1:00 AM48 °FCool.N/A91%30.17 "Hg18 mi
12:00 AM49 °FCool.1 mph89%30.16 "Hg25 mi
11:00 PM
Aug 28
50 °FCool.2 mph89%30.15 "Hg22 mi
10:00 PM53 °FClear.N/A85%30.14 "Hg25 mi
9:00 PM55 °FClear.N/A80%30.13 "Hg31 mi
8:00 PM60 °FClear.N/A70%30.10 "Hg31 mi
7:00 PM66 °FPassing clouds.N/A56%30.07 "Hg31 mi
6:00 PM69 °FPassing clouds.3 mph43%30.07 "Hg31 mi
5:00 PM71 °FPassing clouds.3 mph38%30.06 "Hg25 mi
4:00 PM72 °FMild.N/A33%30.07 "HgN/A
3:00 PM69 °FScattered clouds.N/A41%30.08 "Hg31 mi
2:00 PM69 °FScattered clouds.2 mph52%30.09 "Hg25 mi
1:00 PM69 °FScattered clouds.3 mph52%30.09 "Hg19 mi
12:00 PM69 °FPassing clouds.N/A48%30.09 "Hg19 mi
11:00 AM66 °FPassing clouds.N/A53%30.11 "Hg19 mi
10:00 AM61 °FPassing clouds.N/A70%30.12 "Hg16 mi
9:00 AM57 °FPassing clouds.No wind78%30.12 "Hg16 mi
8:00 AM49 °FPassing clouds.N/A93%30.14 "Hg12 mi
7:00 AM44 °FFog.1 mph96%30.14 "Hg5 mi
6:00 AM42 °FFog.No wind96%30.13 "Hg4 mi
5:00 AM42 °FFog.No wind95%30.11 "Hg4 mi
4:00 AM43 °FFog.No wind95%30.10 "Hg3 mi
3:00 AM44 °FFog.N/A95%30.09 "Hg3 mi
Weather by CustomWeather, © 2014

See weather overviewHow to use our weather pages